Simultaneous Nadir Overpasses (SNOs) Predictions

Prediction of SNOs between AQUA and METOP-C Satellite Orbit:

Table of predicted SNOs for the next 14.0 days since TLE Epoch: 10/3/2025
Index Date (AQUA) Time (AQUA) Lat,Lon (AQUA) SZA (AQUA ) Date (METOP-C) Time (METOP-C) Lat,Lon (METOP-C) SZA (METOP-C ) Distance(km) Time Diff (sec)
1 10/03/2025 15:06:34 -76.99, 137.80 98.77 10/03/2025 15:05:39 -77.01, 137.74 98.76 2.40 55
2 10/03/2025 15:55:53 77.03, -54.68 81.29 10/03/2025 15:56:19 77.03, -54.84 81.29 3.90 26
3 10/06/2025 03:04:52 77.03, 138.14 82.24 10/06/2025 03:03:52 77.02, 138.24 82.23 2.95 60
4 10/06/2025 03:54:10 -77.08, -54.37 97.71 10/06/2025 03:54:32 -77.07, -54.23 97.71 3.58 22
5 10/08/2025 15:03:05 -77.03, 138.64 96.80 10/08/2025 15:02:05 -77.00, 138.62 96.83 3.23 60
6 10/08/2025 15:52:24 77.09, -53.89 83.27 10/08/2025 15:52:44 77.06, -53.79 83.25 3.23 20
7 10/11/2025 03:01:18 77.05, 139.10 84.17 10/11/2025 03:00:17 77.03, 139.18 84.15 2.77 61
8 10/11/2025 03:50:36 -77.09, -53.38 95.78 10/11/2025 03:50:57 -77.08, -53.28 95.78 2.61 21
9 10/13/2025 14:59:28 -77.05, 139.62 94.89 10/13/2025 14:58:30 -77.04, 139.66 94.90 1.70 58
10 10/13/2025 15:48:46 77.07, -52.77 85.15 10/13/2025 15:49:09 77.09, -52.79 85.17 2.64 23
11 10/16/2025 02:57:36 77.04, 140.21 86.04 10/16/2025 02:56:42 77.03, 140.08 86.02 3.49 54
12 10/16/2025 03:46:54 -77.07, -52.25 93.92 10/16/2025 03:47:22 -77.09, -52.35 93.91 3.17 28



Historial Predications of SNOs between AQUA and METOP-C
